GW4573 Weather Reports


Display with metric or nautical units.
time (UTC)temp
F
wind
direction
speed
MPH
gust
MPH
rain 1hr
in
rain 24hr
in
rain mn
in
humidity
%
barometer
mb
20260502221708 49 310 6.0 8.0 0.00 0.00 0.00 51 1016.3
20260502221204 49 350 3.0 4.0 0.00 0.00 0.00 52 1016.3
20260502220701 53 304 8.0 8.0 0.00 0.00 0.00 51 1016.3
20260502220157 53 71 1.0 2.0 0.00 0.00 0.00 50 1016.2
20260502215654 50 311 4.0 4.0 0.00 0.00 0.00 50 1016.2
20260502215151 49 75 7.0 9.0 0.00 0.00 0.00 50 1016.3
20260502214648 50 331 2.0 3.0 0.00 0.00 0.00 53 1016.3
20260502214145 49 347 1.0 3.0 0.00 0.00 0.00 53 1016.1
20260502213642 49 288 2.0 4.0 0.00 0.00 0.00 53 1016.1
20260502213140 49 29 4.0 6.0 0.00 0.00 0.00 51 1016.2
20260502212638 49 37 4.0 7.0 0.00 0.00 0.00 54 1016.3
20260502212136 49 22 3.0 6.0 0.00 0.00 0.00 54 1016.2
20260502211632 48 329 2.0 7.0 0.00 0.00 0.00 53 1016.2
20260502211129 48 305 4.0 6.0 0.00 0.00 0.00 51 1015.9
20260502210627 49 301 3.0 4.0 0.00 0.00 0.00 51 1015.9
20260502210124 49 292 2.0 4.0 0.00 0.00 0.00 50 1015.8
20260502205621 49 133 1.0 4.0 0.00 0.00 0.00 50 1015.7
20260502205117 51 321 3.0 8.0 0.00 0.00 0.00 50 1015.7
20260502204614 51 306 5.0 8.0 0.00 0.00 0.00 52 1015.8
20260502204111 50 74 3.0 8.0 0.00 0.00 0.00 53 1016.1
20260502203608 49 333 2.0 2.0 0.00 0.00 0.00 54 1016.1
20260502203105 49 319 4.0 4.0 0.00 0.00 0.00 55 1016.1
20260502202601 48 72 2.0 4.0 0.00 0.00 0.00 53 1016.2
20260502202059 48 319 11.0 11.0 0.00 0.00 0.00 57 1016.3
20260502201550 49 326 8.0 11.0 0.00 0.00 0.00 55 1016.1
20260502201047 50 335 3.0 6.0 0.00 0.00 0.00 52 1016.1
20260502200542 50 293 6.0 10.0 0.00 0.00 0.00 51 1016.2
20260502200040 52 298 10.0 13.0 0.00 0.00 0.00 51 1016.1
20260502195538 50 258 6.0 7.0 0.00 0.00 0.00 51 1016.3
20260502195034 50 127 0.0 9.0 0.00 0.00 0.00 51 1016.3
20260502194531 52 298 4.0 6.0 0.00 0.00 0.00 50 1016.1
20260502194027 51 336 4.0 7.0 0.00 0.00 0.00 56 1016.5
20260502193525 49 22 1.0 3.0 0.00 0.00 0.00 55 1016.6
20260502193021 49 82 4.0 8.0 0.00 0.00 0.00 59 1016.6
20260502192516 48 40 2.0 3.0 0.00 0.00 0.00 58 1016.7
20260502192014 48 296 1.0 3.0 0.00 0.00 0.00 59 1016.7
20260502191511 47 308 4.0 10.0 0.00 0.00 0.00 56 1016.8
20260502191009 48 310 8.0 10.0 0.00 0.00 0.00 55 1016.9
20260502190506 48 326 6.0 8.0 0.00 0.00 0.00 56 1016.9
20260502190003 49 357 3.0 6.0 0.00 0.00 0.00 57 1016.8
20260502185458 51 319 5.0 7.0 0.00 0.00 0.00 52 1016.9
20260502184954 49 301 2.0 4.0 0.00 0.00 0.00 54 1016.9
20260502184449 48 332 2.0 6.0 0.00 0.00 0.00 53 1016.8
20260502183946 49 31 2.0 4.0 0.00 0.00 0.00 54 1016.8
20260502183442 49 28 2.0 6.0 0.00 0.00 0.00 53 1016.8
20260502182937 48 315 4.0 6.0 0.00 0.00 0.00 55 1015.7
20260502182434 49 112 3.0 6.0 0.00 0.00 0.00 50 1015.4
20260502181929 48 120 5.0 10.0 0.00 0.00 0.00 51 1015.5
20260502181428 48 314 6.0 8.0 0.00 0.00 0.00 54 1015.5
20260502180926 48 311 6.0 8.0 0.00 0.00 0.00 55 1015.6
20260502180423 49 301 6.0 10.0 0.00 0.00 0.00 55 1015.6
20260502170342 47 304 8.0 10.0 0.00 0.00 0.00 55 1015.8
20260502164324 49 211 2.0 6.0 0.00 0.00 0.00 50 1015.9
20260502163820 50 226 2.0 8.0 0.00 0.00 0.00 47 1015.9
20260502163317 49 303 3.0 10.0 0.00 0.00 0.00 53 1016.2
20260502162814 50 315 4.0 6.0 0.00 0.00 0.00 53 1015.9
20260502162310 50 350 3.0 4.0 0.00 0.00 0.00 52 1016.1
20260502161808 49 351 2.0 7.0 0.00 0.00 0.00 54 1016.2
20260502161303 51 35 2.0 8.0 0.00 0.00 0.00 47 1016.1
20260502160801 51 119 2.0 4.0 0.00 0.00 0.00 45 1016.1
20260502160255 51 317 10.0 13.0 0.00 0.00 0.00 50 1016.2
20260502152229 49 286 6.0 8.0 0.00 0.00 0.00 57 1016.3
20260502151727 49 213 2.0 7.0 0.00 0.00 0.00 53 1016.2
20260502151223 49 321 0.0 2.0 0.00 0.00 0.00 51 1016.3
20260502150721 49 322 1.0 3.0 0.00 0.00 0.00 53 1016.2
20260502150218 49 82 2.0 7.0 0.00 0.00 0.00 56 1016.4
20260502130606 42 309 2.0 2.0 0.00 0.00 0.00 80 1016.5
20260502130104 42 148 0.0 0.0 0.00 0.00 0.00 83 1016.4
20260502123549 40 218 0.0 0.0 0.00 0.00 0.00 92 1016.3
20260502123045 39 211 0.0 0.0 0.00 0.00 0.00 93 1016.3
20260502122542 38 225 0.0 0.0 0.00 0.00 0.00 94 1015.9
20260502122040 38 207 0.0 0.0 0.00 0.00 0.00 94 1016.2
20260502121537 38 207 0.0 0.0 0.00 0.00 0.00 95 1016.3
20260502121034 37 207 0.0 0.0 0.00 0.00 0.00 95 1016.2
20260502120530 37 209 0.0 0.0 0.00 0.00 0.00 95 1016.2
20260502115525 37 255 0.0 0.0 0.00 0.00 0.00 96 1016.1
20260502115021 37 249 0.0 0.0 0.00 0.00 0.00 96 1016.1
20260502114518 37 265 0.0 0.0 0.00 0.00 0.00 96 1016.2
20260502114015 36 191 0.0 0.0 0.00 0.00 0.00 96 1016.2
20260502113512 36 192 0.0 0.0 0.00 0.00 0.00 96 1016.3
20260502113011 36 161 0.0 0.0 0.00 0.00 0.00 96 1016.3
20260502112508 35 158 0.0 0.0 0.00 0.00 0.00 96 1016.2
20260502112005 35 158 0.0 0.0 0.00 0.00 0.00 96 1016.2
20260502111503 35 158 0.0 0.0 0.00 0.00 0.00 96 1015.8
20260502111000 35 158 0.0 0.0 0.00 0.00 0.00 96 1015.9
20260502110457 35 158 0.0 0.0 0.00 0.00 0.00 96 1015.9
20260502105954 35 158 0.0 0.0 0.00 0.00 0.00 96 1016.1
20260502105452 35 158 0.0 0.0 0.00 0.00 0.00 96 1015.8
20260502104950 34 158 0.0 0.0 0.00 0.00 0.00 95 1015.9
20260502104447 34 158 0.0 0.0 0.00 0.00 0.00 95 1015.8
20260502103944 35 158 0.0 0.0 0.00 0.00 0.00 95 1015.7
20260502103441 35 163 0.0 0.0 0.00 0.00 0.00 95 1015.7
20260502102938 35 151 0.0 0.0 0.00 0.00 0.00 94 1016.1
20260502102435 35 151 0.0 0.0 0.00 0.00 0.00 94 1015.7
20260502101932 35 165 0.0 0.0 0.00 0.00 0.00 94 1015.9
20260502101430 35 178 0.0 0.0 0.00 0.00 0.00 94 1016.2
20260502100928 35 152 0.0 0.0 0.00 0.00 0.00 94 1016.1
20260502100427 35 152 0.0 0.0 0.00 0.00 0.00 93 1015.9
20260502091401 37 117 0.0 0.0 0.00 0.00 0.00 90 1016.3
20260502090859 37 149 0.0 0.0 0.00 0.00 0.00 90 1016.3
20260502090355 37 149 0.0 0.0 0.00 0.00 0.00 90 1016.4
20260502071250 41 297 0.0 0.0 0.00 0.00 0.00 78 1016.2
20260502070749 42 297 0.0 0.0 0.00 0.00 0.00 77 1015.9
20260502070246 42 288 0.0 0.0 0.00 0.00 0.00 78 1016.2
20260502065744 42 344 0.0 2.0 0.00 0.00 0.00 78 1016.2
20260502065242 42 320 2.0 2.0 0.00 0.00 0.00 81 1016.2
20260502064740 42 285 0.0 0.0 0.00 0.00 0.00 82 1016.2
20260502064238 42 282 0.0 0.0 0.00 0.00 0.00 78 1015.9
20260502063735 42 204 0.0 0.0 0.00 0.00 0.00 79 1016.1
20260502063233 42 276 0.0 0.0 0.00 0.00 0.00 79 1016.1
20260502062729 42 318 0.0 0.0 0.00 0.00 0.00 80 1016.3
20260502062222 42 299 0.0 2.0 0.00 0.00 0.00 80 1016.3
20260502061720 42 181 0.0 0.0 0.00 0.00 0.00 78 1016.4
20260502061217 41 250 0.0 0.0 0.00 0.00 0.00 78 1016.5
20260502060712 42 225 0.0 0.0 0.00 0.00 0.00 78 1016.4
20260502060209 42 157 0.0 0.0 0.00 0.00 0.00 77 1016.3
20260502055707 42 140 0.0 0.0 0.00 0.00 0.00 75 1016.2
20260502055204 42 141 0.0 0.0 0.00 0.00 0.00 76 1016.3
20260502054704 43 151 0.0 0.0 0.00 0.00 0.00 76 1016.3
20260502054200 43 89 0.0 0.0 0.00 0.00 0.00 71 1016.2
20260502053657 44 340 0.0 1.0 0.00 0.00 0.00 71 1016.4
20260502053154 44 3 0.0 0.0 0.00 0.00 0.00 71 1016.4
20260502052652 44 141 0.0 0.0 0.00 0.00 0.00 72 1016.3
20260502052150 44 332 0.0 0.0 0.00 0.00 0.00 70 1016.4
20260502051648 44 356 0.0 0.0 0.00 0.00 0.00 70 1016.5
20260502051146 44 307 0.0 2.0 0.00 0.00 0.00 70 1016.6
20260502050642 44 301 0.0 2.0 0.00 0.00 0.00 68 1016.6
20260502050138 45 98 0.0 2.0 0.00 0.00 0.00 67 1016.4
20260502045635 45 3 1.0 2.0 0.00 0.00 0.00 68 1016.4
20260502045133 45 59 3.0 4.0 0.00 0.00 0.00 65 1016.6
20260502044629 45 332 3.0 4.0 0.00 0.00 0.00 66 1016.6
20260502044126 45 267 0.0 2.0 0.00 0.00 0.00 67 1016.6
20260502043624 46 330 3.0 4.0 0.00 0.00 0.00 70 1016.5
20260502043120 46 327 2.0 2.0 0.00 0.00 0.00 72 1016.5
20260502042614 46 335 2.0 3.0 0.00 0.00 0.00 72 1016.5
20260502042112 46 355 0.0 1.0 0.00 0.00 0.00 73 1016.5
20260502041609 46 15 1.0 3.0 0.00 0.00 0.00 73 1016.6
20260502041106 47 19 2.0 3.0 0.00 0.00 0.00 74 1016.4
20260502040603 47 338 2.0 3.0 0.00 0.00 0.00 75 1016.3
20260502040100 47 338 1.0 2.0 0.00 0.00 0.00 75 1016.4
20260502035556 47 84 0.0 1.0 0.00 0.00 0.00 77 1016.4
20260502035054 47 282 2.0 2.0 0.00 0.00 0.00 78 1016.2
20260502034551 47 306 3.0 8.0 0.00 0.00 0.00 77 1016.3
20260502034049 47 308 1.0 6.0 0.00 0.00 0.00 77 1016.3
20260502033547 47 116 2.0 3.0 0.00 0.00 0.00 77 1016.2
20260502033044 47 40 1.0 3.0 0.00 0.00 0.00 76 1016.3
20260502032540 48 329 2.0 4.0 0.00 0.00 0.00 76 1016.2
20260502032037 48 14 0.0 2.0 0.00 0.00 0.00 76 1016.5
20260502031535 48 320 4.0 7.0 0.00 0.00 0.00 76 1016.3
20260502031033 48 328 0.0 3.0 0.00 0.00 0.00 76 1016.4
20260502030531 48 315 3.0 9.0 0.00 0.00 0.00 76 1016.4
20260502030029 48 2 3.0 4.0 0.00 0.00 0.00 75 1016.2
20260502025526 48 0 2.0 4.0 0.00 0.00 0.00 76 1016.3
20260502025024 48 14 1.0 3.0 0.00 0.00 0.00 75 1016.4
20260502024521 48 323 1.0 4.0 0.00 0.00 0.00 75 1016.2
20260502024020 48 307 0.0 1.0 0.00 0.00 0.00 75 1016.2
20260502023517 48 315 0.0 1.0 0.00 0.00 0.00 74 1016.1
20260502023014 48 12 0.0 3.0 0.00 0.00 0.00 75 1016.1
20260502022510 48 356 1.0 8.0 0.00 0.00 0.00 72 1016.1
20260502022008 48 355 0.0 2.0 0.00 0.00 0.00 72 1015.6
20260502021505 48 320 1.0 2.0 0.00 0.00 0.00 72 1016.1
20260502021001 49 341 1.0 1.0 0.00 0.00 0.00 70 1015.7
20260502020500 49 300 0.0 1.0 0.00 0.00 0.00 70 1015.6
20260502015956 49 95 2.0 2.0 0.00 0.00 0.00 71 1015.4
20260502015454 48 345 1.0 3.0 0.00 0.00 0.00 71 1015.6
20260502014950 49 323 1.0 2.0 0.00 0.00 0.00 71 1015.4
20260502014447 49 8 3.0 7.0 0.00 0.00 0.00 71 1015.2
20260502013944 49 91 1.0 3.0 0.00 0.00 0.00 70 1015.1
20260502013439 49 118 0.0 1.0 0.00 0.00 0.00 71 1014.9
20260502012936 49 89 1.0 2.0 0.00 0.00 0.00 71 1014.9
20260502012434 50 298 2.0 3.0 0.00 0.00 0.00 71 1014.9
20260502011931 50 287 2.0 3.0 0.00 0.00 0.00 69 1014.8
20260502011427 50 139 1.0 3.0 0.00 0.00 0.00 69 1014.6
20260502010924 50 301 4.0 7.0 0.00 0.00 0.00 70 1014.7
20260502010420 50 23 2.0 4.0 0.00 0.00 0.00 70 1014.7
20260502005917 51 284 3.0 7.0 0.00 0.00 0.00 70 1014.5
20260502005415 51 43 3.0 4.0 0.00 0.00 0.00 70 1014.4
20260502004913 51 38 1.0 2.0 0.00 0.00 0.00 70 1014.1
20260502004409 51 38 1.0 2.0 0.00 0.00 0.00 70 1014.1
20260502003906 51 302 6.0 8.0 0.00 0.00 0.00 69 1014.1
20260502003403 51 334 3.0 6.0 0.00 0.00 0.00 71 1014.1
20260502002859 51 321 2.0 9.0 0.00 0.00 0.00 70 1013.8
20260502002357 52 311 6.0 7.0 0.00 0.00 0.00 71 1014.1
20260502001854 52 302 1.0 4.0 0.00 0.00 0.00 72 1014.0
20260502001351 52 332 1.0 2.0 0.00 0.00 0.00 72 1013.7
20260502000849 52 323 2.0 4.0 0.00 0.00 0.00 73 1013.7
20260502000347 52 308 2.0 3.0 0.00 0.00 0.00 72 1013.4
20260501235843 52 24 2.0 6.0 0.00 0.00 0.00 72 1013.6
20260501235339 53 311 1.0 3.0 0.00 0.00 0.00 71 1013.2
20260501234834 53 77 1.0 4.0 0.00 0.00 0.00 70 1013.1
20260501234331 53 316 2.0 4.0 0.00 0.00 0.00 70 1013.2
20260501233830 53 317 4.0 4.0 0.00 0.00 0.00 70 1013.0
20260501233327 53 2 2.0 4.0 0.00 0.00 0.00 69 1012.8
20260501232823 54 92 2.0 9.0 0.00 0.00 0.00 69 1012.9
20260501232320 55 322 3.0 6.0 0.00 0.00 0.00 65 1012.8
20260501231817 56 275 1.0 7.0 0.00 0.00 0.00 63 1012.8
20260501231315 55 316 2.0 8.0 0.00 0.00 0.00 64 1012.9
20260501230813 55 307 2.0 4.0 0.00 0.00 0.00 64 1012.7
20260501230312 55 113 2.0 3.0 0.00 0.00 0.00 64 1012.6
20260501225809 56 331 3.0 3.0 0.00 0.00 0.00 62 1012.4
20260501225307 56 348 3.0 6.0 0.00 0.00 0.00 60 1012.6
20260501224803 57 77 4.0 6.0 0.00 0.00 0.00 60 1012.8
20260501224300 58 25 5.0 8.0 0.00 0.00 0.00 55 1012.1
20260501223756 59 353 4.0 6.0 0.00 0.00 0.00 52 1012.1
20260501223253 59 333 8.0 11.0 0.00 0.00 0.00 48 1012.0
20260501222748 60 306 6.0 13.0 0.00 0.00 0.00 46 1012.0
20260501222246 60 12 9.0 13.0 0.00 0.00 0.00 48 1011.8